Flag for Nicaragua Weather past 2 weeks in Masaya, Nicaragua

Now
77 °F

Passing clouds.


Feels Like: 79 °F
Forecast: 74 / 91 °F
Wind: 5 mph from South

Location: Managua A. C. Sandino

Current Time: May 28, 2015 at 6:38:32 AM

Latest Report: May 28, 2015 at 6:00 AM


Visibility: N/A

Pressure: 29.86 "Hg

Humidity: 79%

Dew point: 70 °F

Location of MasayaLocation

Historic Weather in Masaya — Graph

°F

Masaya temperature yesterday

Maximum temperature yesterday: 93 °F (at 12:00 PM)
Minimum temperature yesterday: 73 °F (at 5:00 AM)
Average temperature yesterday: 85 °F

Past Weeks' High & Low Weather Summary

 TemperatureHumidityPressure
High95 °F (May 13, 3:00 PM)94% (May 17, 5:00 PM)29.98 "Hg (May 17, 5:00 PM)
Low73 °F (May 18, 12:00 AM)36% (May 16, 1:00 PM)29.71 "Hg (May 13, 3:00 PM)
Average84 °F64%29.85 "Hg
* Reported May 13 5:00 AM — May 28 5:00 AM, Masaya, Weather by CustomWeather, © 2015

Note: Actual official high and low records may vary slightly from our data, if they occured in-between our weather recording intervals... More about our weather records

Advertising

Masaya weather history for previous 24 hours

 ConditionsComfort  
Time TempWeatherWind HumidityBarometerVisibility
5:00 AM
Thu, May 28
77 °FPassing clouds.5 mph79%29.86 "HgN/A
4:00 AM77 °FPassing clouds.5 mph79%29.83 "HgN/A
12:00 AM81 °FPassing clouds.9 mph66%29.89 "HgN/A
11:00 PM
Wed, May 27
82 °FPassing clouds.9 mph66%29.89 "HgN/A
10:00 PM84 °FPassing clouds.12 mph62%29.89 "HgN/A
9:00 PM84 °FPassing clouds.5 mph62%29.86 "HgN/A
8:00 PM84 °FPassing clouds.7 mph62%29.83 "HgN/A
7:00 PM86 °FPassing clouds.12 mph59%29.83 "HgN/A
6:00 PM90 °FPartly sunny.12 mph52%29.77 "HgN/A
5:00 PM91 °FPartly sunny.12 mph44%29.77 "HgN/A
4:00 PM93 °FPartly sunny.9 mph41%29.77 "HgN/A
3:00 PM93 °FPartly sunny.16 mph39%29.77 "HgN/A
2:00 PM91 °FPartly sunny.9 mph46%29.77 "HgN/A
1:00 PM91 °FPartly sunny.12 mph44%29.83 "HgN/A
12:00 PM93 °FPartly sunny.18 mph49%29.83 "HgN/A
11:00 AM91 °FPartly sunny.12 mph46%29.89 "HgN/A
10:00 AM88 °FPartly sunny.14 mph49%29.89 "HgN/A
9:00 AM86 °FPartly sunny.12 mph59%29.92 "HgN/A
8:00 AM82 °FPartly sunny.5 mph70%29.92 "HgN/A
7:00 AM79 °FPartly sunny.5 mph74%29.89 "HgN/A
6:00 AM75 °FPartly sunny.5 mph78%29.89 "HgN/A
Weather by CustomWeather, © 2015

See weather overviewHow to use our weather pages